This demonstration page uses our WeatherBlox Daily Observations layout. Learn more.

Left ArrowRight Arrow

39.95238, -75.16362

Hourly Observations for June 29, 2022

Temp ( °F °C ) Dew Point ( °F °C ) Humidity (%) Winds ( mph kmh ) Pressure ( in mb ) Visibility ( mi km ) Precip ( " mm )
12:54 am 00:54 Partly Cloudy 67 19.4 60 15.6 79 79 SE 5 7 30.21 1023 10 16 0.00 0.00
1:54 am 01:54 Partly Cloudy 66 18.9 60 15.6 81 81 Calm 30.22 1023 10 16 0.00 0.00
2:54 am 02:54 Mostly Cloudy 67 19.4 60 15.6 79 79 S 3 6 30.22 1024 10 16 0.00 0.00
3:54 am 03:54 Cloudy 65 18.3 60 15.6 84 84 S 6 9 30.22 1023 10 16 0.00 0.00
4:54 am 04:54 Mostly Cloudy 66 18.9 60 15.6 81 81 Calm 30.23 1024 10 16 0.00 0.00
5:54 am 05:54 Partly Cloudy 65 18.3 60 15.6 84 84 Calm 30.24 1024 10 16 0.00 0.00
6:54 am 06:54 Mostly Sunny 67 19.4 61 16.1 81 81 SW 3 6 30.25 1024 10 16 0.00 0.00
7:54 am 07:54 Mostly Sunny 70 21.1 61 16.1 73 73 VRB 3 6 30.25 1024 10 16 0.00 0.00
8:54 am 08:54 Mostly Sunny 74 23.3 61 16.1 64 64 SW 7 11 30.25 1025 10 16 0.00 0.00
9:54 am 09:54 Mostly Sunny 78 25.6 61 16.1 56 56 VRB 5 7 30.24 1024 10 16 0.00 0.00
10:54 am 10:54 Mostly Sunny 80 26.7 57 13.9 45 45 SW 9 15 30.24 1024 10 16 0.00 0.00
11:54 am 11:54 Mostly Sunny 82 27.8 56 13.3 41 41 WSW 9 15 30.24 1024 10 16 0.00 0.00
12:54 pm 12:54 Mostly Sunny 84 28.9 55 12.8 37 37 WSW 8 13 30.22 1024 10 16 0.00 0.00
1:54 pm 13:54 Mostly Sunny 84 28.9 54 12.2 36 36 WSW 8 13 30.20 1023 10 16 0.00 0.00
2:54 pm 14:54 Mostly Sunny 85 29.4 56 13.3 37 37 undefined N/A 30.19 1022 10 16 0.00 0.00
3:01 pm 15:01 Mostly Sunny 85 29.4 56 13.3 37 37 W 10 17 30.19 1022 10 16 0.00 0.00
3:54 pm 15:54 Partly Cloudy 87 30.6 57 13.9 36 36 SW 10 17 30.17 1022 10 16 0.00 0.00
4:54 pm 16:54 Partly Cloudy 87 30.6 58 14.4 37 37 SW 9 15 30.16 1021 10 16 0.00 0.00
5:54 pm 17:54 Partly Cloudy 86 30 59 15 40 40 SW 15 24 30.15 1021 10 16 0.00 0.00
6:54 pm 18:54 Partly Cloudy 85 29.4 60 15.6 43 43 WSW 15 24 30.15 1021 10 16 0.00 0.00
7:54 pm 19:54 Partly Cloudy 82 27.8 61 16.1 49 49 SSW 12 19 30.15 1021 10 16 0.00 0.00
8:54 pm 20:54 Partly Cloudy 79 26.1 61 16.1 54 54 S 7 11 30.16 1022 10 16 0.00 0.00
9:54 pm 21:54 Partly Cloudy 78 25.6 61 16.1 56 56 SSW 7 11 30.19 1022 10 16 0.00 0.00
10:54 pm 22:54 Partly Cloudy 76 24.4 63 17.2 64 64 S 3 6 30.19 1023 10 16 0.00 0.00
11:54 pm 23:54 Mostly Clear 75 23.9 64 17.8 69 69 SSW 7 11 30.21 1023 10 16 0.00 0.00

Powered by AerisWeather